Regional Weather Roundup
Issued by NWS

Home | Current Version | Previous Version | Graphics & Text | Print | Product List | Glossary On
Versions: 1 2 3 4 5 6 7 8 9 10 11 12 13 14 15 16 17 18 19 20 21 22 23 24 25 26 27 28 29 30 31 32 33 34 35 36 37 38 39 40 41 42 43 44 45 46 47 48 49 50
101
ASUS43 KLOT 181208
RWRIL

ILLINOIS REGIONAL WEATHER ROUNDUP
NATIONAL WEATHER SERVICE CHICAGO/ROMEOVILLE IL
600 AM CST SAT NOV 18 2017

NOTE: "FAIR" INDICATES FEW OR NO CLOUDS BELOW 12,000 FEET WITH NO
SIGNIFICANT WEATHER AND/OR OBSTRUCTIONS TO VISIBILITY.

* THESE STATIONS ARE NOT UNDER NWS QUALITY CONTROL. THEY ALSO MAY NOT
  REPORT WEATHER SUCH AS PRECIPITATION OR FOG.

ILZ001-002-007-009-015-016-024-181300-
NORTHWEST ILLINOIS

CITY           SKY/WX    TMP DP  RH WIND       PRES   REMARKS
MOLINE         LGT RAIN  43  40  89 N12       29.48F
6HR MIN TEMP:  43; 6HR MAX TEMP:  50; 6HR PCP:  0.10;

STERLING*        N/A    N/A N/A N/A MISG        N/A
SAVANNA*       LGT RAIN  40  38  91 N7        29.53R
$$

ILZ003-004-008-010-011-017-018-181300-
NORTH CENTRAL ILLINOIS

CITY           SKY/WX    TMP DP  RH WIND       PRES   REMARKS
ROCKFORD       CLOUDY    40  37  89 NE13      29.52F
6HR MIN TEMP:  40; 6HR MAX TEMP:  43; 6HR PCP:  0.01;

FREEPORT*      CLOUDY    38  37  96 N12       29.52F WCI  30
ROCHELLE*      LGT RAIN  39  39  99 N9        29.49F WCI  33
DE KALB*       LGT RAIN  40  40  98 NE15      29.48F
PERU*          RAIN      43  42  95 N15       29.47F
$$

ILZ005-006-012>014-019>023-181300-
NORTHEAST ILLINOIS

CITY           SKY/WX    TMP DP  RH WIND       PRES   REMARKS
CHICAGO-OHARE  CLOUDY    44  41  89 N12       29.48F
6HR MIN TEMP:  44; 6HR MAX TEMP:  48; 6HR PCP:  0.03;

CHICAGO-MIDWAY CLOUDY    46  45  96 NE15      29.46F FOG
6HR MIN TEMP:  46; 6HR MAX TEMP:  48; 6HR PCP:  0.01;

AURORA         RAIN      44  43  96 N13       29.46F FOG
6HR MIN TEMP:  44; 6HR MAX TEMP:  48; 6HR PCP:  0.03;

LANSING*       HVY RAIN  46  46 100 CALM      29.48F
JOLIET*        LGT RAIN  48  48 100 NE7       29.46F
WAUKEGAN       CLOUDY    41  39  93 N10G17    29.49F
6HR MIN TEMP:  41; 6HR MAX TEMP:  44; 6HR PCP:  0.01;

DUPAGE AIRPORT CLOUDY    43  43 100 N13G21    29.47F FOG
6HR MIN TEMP:  43; 6HR MAX TEMP:  46; 6HR PCP:  0.02;

KANKAKEE*      CLOUDY    47  46  96 NE7       29.44F
WHEELING       CLOUDY    43  42  97 NE12      29.49F
6HR MIN TEMP:  43; 6HR MAX TEMP:  47; 6HR PCP:  0.02;

MORRIS*        CLOUDY    46  45  97 NE5       29.43F FOG
ROMEOVILLE*    RAIN      46  46 100 NE14      29.46F
NORTHERLY ISL    N/A     44  42  93 N10         N/A
$$

LMZ740>746-181300-
SOUTHERN LAKE MICHIGAN

STATION/POSITION SKY/WX   TEMP    WIND        PRES    VSBY  WAVE
                          AIR SEA DIR/SP/G                  HT/PER
                          (F)     (DEG/KT/KT) (MB)    (MI)  (FT/S)
SOUTHERN BUOY              44 49   10/ 16/ 19  999.5F         2/ 3
HARRISON CRIB              45     360/ 16/ 18   N/A
BURNHAM HARBOR             44     340/  9/ 13   N/A
BURNS HARBOR               47        CALM      999.0F
MICHIGAN CITY              45     110/  3/  4   N/A
$$

ILZ025>027-034>036-040-047-049-050-058-095>099-181300-
WEST-CENTRAL ILLINOIS

CITY           SKY/WX    TMP DP  RH WIND       PRES   REMARKS
QUINCY         LGT RAIN  52  51  97 NE12      29.35F FOG
GALESBURG*     CLOUDY    44  44 100 N17G25    29.45R
MACOMB*        RAIN      47  47  99 NE14G20   29.44S
JACKSONVILLE*  CLOUDY    60  58  92 W5        29.37F THUNDER
PITTSFIELD*    CLOUDY    57  56  97 NE7       29.35F FOG
$$

ILZ028>032-037-038-041>044-048-051>054-059>061-181300-
CENTRAL ILLINOIS

CITY           SKY/WX    TMP DP  RH WIND       PRES   REMARKS
PONTIAC        LGT RAIN  48  47  97 NE9       29.45S
BLOOMINGTON    RAIN      51  50  96 NE7       29.43F FOG
DECATUR        LGT RAIN  60  57  89 S17       29.39F
PEORIA         LGT RAIN  49  49 100 NE12      29.43F FOG
6HR MIN TEMP:  49; 6HR MAX TEMP:  52; 6HR PCP:  0.16;

LACON*         RAIN      46  46 100 NE9       29.42F
LINCOLN*       TSTM      52  52 100 NW6       29.41S
SPRINGFIELD    LGT RAIN  60  58  92 S13       29.36F
6HR MIN TEMP:  56; 6HR MAX TEMP:  61; 6HR PCP:  0.01;

TAYLORVILLE    CLOUDY    59  57  93 S13       29.39F
6HR MIN TEMP:  54; 6HR MAX TEMP:  60; 6HR PCP:  0.01;

$$

ILZ033-039-045-046-055>057-062-063-181300-
EAST-CENTRAL ILLINOIS

CITY           SKY/WX    TMP DP  RH WIND       PRES   REMARKS
CHAMPAIGN      LGT RAIN  58  54  86 S15       29.41F
DANVILLE*      CLOUDY    58  54  86 S9G16     29.40F
RANTOUL*       HVY RAIN  55  54  97 S8        29.41F
MATTOON        CLOUDY    59  56  89 S12       29.42F
PARIS*         CLOUDY    59  55  87 S21G28    29.44F
$$

ILZ079-100>102-181300-
SOUTHWEST ILLINOIS

CITY           SKY/WX    TMP DP  RH WIND       PRES   REMARKS
ALTON          RAIN      61  60  96 S13       29.39F
BELLEVILLE     CLOUDY    63  58  83 S8        29.41F
CAHOKIA*       LGT RAIN  61  58  90 SE6       29.39F
SPARTA*        DRIZZLE   63  60  90 S17G25    29.45F
$$

ILZ064>066-069>071-074>076-080>082-084>086-088>090-092>094-181300-
SOUTH-CENTRAL ILLINOIS

CITY           SKY/WX    TMP DP  RH WIND       PRES   REMARKS
CARBONDALE     CLOUDY    67  62  84 S14G26    29.51F
6HR MIN TEMP:  65; 6HR MAX TEMP:  67;

CAIRO*         CLOUDY    66  60  81 SW8       29.58R
EFFINGHAM*     CLOUDY    64  58  83 S12G20    29.46F
MARION         CLOUDY    67  64  91 S17       29.53S
MT. VERNON     LGT RAIN  65  60  84 S18       29.48F
CENTRALIA*     CLOUDY    66  61  84 S20G25    29.46S
SALEM*         CLOUDY    67  60  78 S18G25    29.45F
METROPOLIS*    CLOUDY    67  60  76 S13G18    29.59R
$$

ILZ067-068-072-073-078-083-087-091-181300-
SOUTHEAST ILLINOIS

CITY           SKY/WX    TMP DP  RH WIND       PRES   REMARKS
LAWRENCEVILLE  CLOUDY    63  55  75 S21       29.50F
FLORA*         CLOUDY    64  58  81 S13G18    29.48F
FAIRFIELD*     LGT RAIN  64  59  84 S10       29.48F
HARRISBURG*    CLOUDY    66  60  80 S17G23    29.54S
ROBINSON*      CLOUDY    61  55  80 S16G23    29.48F
CARMI*         DRIZZLE   64  59  84 S24G30    29.52F
$$

ABBREVIATIONS USED IN REMARKS
   TC - TEMPERATURE IN CELSIUS
  WCI - WIND CHILL INDEX
   HX - HEAT INDEX
  VSB - VISIBILITY
$$





USA.gov is the U.S. government's official web portal to all federal, state and local government web resources and services.